Location: Bremen
(53.0793°N, 8.8017°E)
Time: 23:07:56
(UTC+01:00)

Tiros 1 despin weight - Visible Passes

Search period start: 06 December 2021 00:00
Search period end: 16 December 2021 00:00
Orbit: 593 x 641 km, 48.2° (Epoch: 05 December)

Date Brightness Start Highest point End Pass type
(mag) Time Alt. Az. Time Alt. Az. Time Alt. Az.
06 Dec ? 16:57:43 10° W 17:01:40 32° SSW 17:05:37 10° SE visible
06 Dec ? 18:40:16 10° WSW 18:42:16 13° SW 18:44:15 10° S visible
07 Dec ? 17:13:57 10° W 17:17:32 24° SSW 17:21:06 10° SSE visible
08 Dec ? 17:30:30 10° WSW 17:33:19 17° SSW 17:36:09 10° S visible
09 Dec ? 17:48:12 10° SW 17:49:00 10° SW 17:49:49 10° SSW visible
